Time,TemperatureF,DewpointF,PressureIn,WindDirection,WindDirectionDegrees,WindSpeedMPH,WindSpeedGustMPH,Humidity,HourlyPrecipIn,Conditions,Clouds,dailyrainin,SoftwareType,DateUTC
2013-05-31 00:04:00,58.9,56.5,29.67,SE,124,0.0,0.0,91,0.00,,,-99.99,Meteorologica,2013-05-31 05:04:00,
2013-05-31 00:09:00,58.9,56.5,29.67,SE,124,0.0,0.0,92,0.00,,,-99.99,Meteorologica,2013-05-31 05:09:00,
2013-05-31 00:14:00,58.8,56.4,29.67,SE,124,0.0,0.0,92,0.00,,,-99.99,Meteorologica,2013-05-31 05:14:00,
2013-05-31 00:19:00,58.8,56.4,29.67,SE,124,0.0,0.0,92,0.00,,,-99.99,Meteorologica,2013-05-31 05:19:00,
2013-05-31 00:24:00,58.9,56.6,29.67,SE,124,0.0,0.0,92,0.00,,,-99.99,Meteorologica,2013-05-31 05:24:00,
2013-05-31 00:29:00,58.9,56.6,29.67,SE,124,0.0,0.0,92,0.00,,,-99.99,Meteorologica,2013-05-31 05:29:00,
2013-05-31 00:34:00,58.9,56.6,29.68,SE,124,0.0,0.0,92,0.00,,,-99.99,Meteorologica,2013-05-31 05:34:00,
2013-05-31 00:39:00,59.0,56.6,29.67,SE,124,0.0,0.0,92,0.00,,,-99.99,Meteorologica,2013-05-31 05:39:00,
2013-05-31 00:44:00,59.1,56.8,29.68,SE,124,0.0,0.0,92,0.00,,,-99.99,Meteorologica,2013-05-31 05:44:00,
2013-05-31 00:49:00,59.0,56.7,29.68,SE,124,0.0,0.0,92,0.00,,,-99.99,Meteorologica,2013-05-31 05:49:00,
2013-05-31 00:54:00,59.0,56.7,29.69,SE,124,0.0,0.0,92,0.00,,,-99.99,Meteorologica,2013-05-31 05:54:00,
2013-05-31 00:59:00,59.0,56.7,29.68,SE,124,0.0,0.0,92,0.00,,,-99.99,Meteorologica,2013-05-31 05:59:00,
2013-05-31 01:04:00,59.1,56.8,29.68,SE,124,0.0,0.0,92,0.00,,,-99.99,Meteorologica,2013-05-31 06:04:00,
2013-05-31 01:09:00,59.1,56.8,29.68,SE,124,0.0,0.0,92,0.00,,,-99.99,Meteorologica,2013-05-31 06:09:00,
2013-05-31 01:14:00,59.2,56.9,29.67,SE,124,0.0,0.0,92,0.00,,,-99.99,Meteorologica,2013-05-31 06:14:00,
2013-05-31 01:19:00,59.3,57.0,29.67,SE,124,0.0,0.0,92,0.00,,,-99.99,Meteorologica,2013-05-31 06:19:00,
2013-05-31 01:24:00,59.3,57.0,29.67,SE,124,0.0,0.0,92,0.00,,,-99.99,Meteorologica,2013-05-31 06:24:00,
2013-05-31 01:29:00,59.3,57.0,29.67,SE,124,0.0,0.0,92,0.00,,,-99.99,Meteorologica,2013-05-31 06:29:00,
2013-05-31 01:35:00,59.3,57.0,29.67,SE,124,0.0,0.0,92,0.00,,,-99.99,Meteorologica,2013-05-31 06:35:00,
2013-05-31 01:41:00,59.4,57.1,29.66,SE,124,0.0,0.0,92,0.00,,,-99.99,Meteorologica,2013-05-31 06:41:00,
2013-05-31 01:46:00,59.4,57.1,29.66,SE,124,0.0,0.0,92,0.00,,,-99.99,Meteorologica,2013-05-31 06:46:00,
2013-05-31 01:51:00,59.5,57.3,29.65,SE,124,0.0,0.0,92,0.00,,,-99.99,Meteorologica,2013-05-31 06:51:00,
2013-05-31 01:56:00,59.4,57.2,29.65,SE,124,0.0,0.0,92,0.00,,,-99.99,Meteorologica,2013-05-31 06:56:00,
2013-05-31 02:01:00,59.5,57.3,29.66,SE,124,0.0,0.0,92,0.00,,,-99.99,Meteorologica,2013-05-31 07:01:00,
2013-05-31 02:06:00,59.5,57.3,29.66,SE,124,0.0,0.0,92,0.00,,,-99.99,Meteorologica,2013-05-31 07:06:00,
2013-05-31 02:11:00,59.5,57.3,29.66,SE,124,0.0,0.0,92,0.00,,,-99.99,Meteorologica,2013-05-31 07:11:00,
2013-05-31 02:16:00,59.5,57.3,29.65,SE,124,0.0,0.0,92,0.00,,,-99.99,Meteorologica,2013-05-31 07:16:00,
2013-05-31 02:21:00,59.4,57.2,29.64,SE,124,0.0,0.0,92,0.00,,,-99.99,Meteorologica,2013-05-31 07:21:00,
2013-05-31 02:27:00,59.5,57.3,29.64,SE,124,0.0,0.0,92,0.00,,,-99.99,Meteorologica,2013-05-31 07:27:00,
2013-05-31 02:32:00,59.4,57.2,29.62,SE,124,0.0,0.0,92,0.00,,,-99.99,Meteorologica,2013-05-31 07:32:00,
2013-05-31 02:37:00,59.3,57.1,29.62,SE,124,0.0,0.0,92,0.00,,,-99.99,Meteorologica,2013-05-31 07:37:00,
2013-05-31 02:42:00,59.2,57.0,29.62,SE,124,0.0,0.0,92,0.00,,,-99.99,Meteorologica,2013-05-31 07:42:00,
2013-05-31 02:48:00,59.0,56.8,29.63,SE,124,0.0,0.0,92,0.00,,,-99.99,Meteorologica,2013-05-31 07:48:00,
2013-05-31 02:53:00,58.9,56.8,29.64,SE,124,0.0,0.0,92,0.00,,,-99.99,Meteorologica,2013-05-31 07:53:00,
2013-05-31 02:58:00,58.8,56.7,29.64,South,187,4.2,5.2,92,0.00,,,-99.99,Meteorologica,2013-05-31 07:58:00,
2013-05-31 03:03:00,58.8,56.7,29.65,South,191,0.0,0.0,93,0.00,,,-99.99,Meteorologica,2013-05-31 08:03:00,
2013-05-31 03:09:00,59.1,57.0,29.64,South,191,0.0,0.0,93,0.00,,,-99.99,Meteorologica,2013-05-31 08:09:00,
2013-05-31 03:14:00,59.2,57.1,29.64,South,191,0.0,0.0,93,0.00,,,-99.99,Meteorologica,2013-05-31 08:14:00,
2013-05-31 03:19:00,59.2,57.1,29.64,South,191,0.0,0.0,92,0.00,,,-99.99,Meteorologica,2013-05-31 08:19:00,
2013-05-31 03:24:00,59.2,57.1,29.64,South,191,0.0,0.0,93,0.00,,,-99.99,Meteorologica,2013-05-31 08:24:00,
2013-05-31 03:29:00,59.2,57.1,29.64,South,191,0.0,0.0,93,0.00,,,-99.99,Meteorologica,2013-05-31 08:29:00,
2013-05-31 03:34:00,59.2,57.1,29.64,South,191,0.0,0.0,93,0.00,,,-99.99,Meteorologica,2013-05-31 08:34:00,
2013-05-31 03:40:00,59.3,57.3,29.64,South,191,0.0,0.0,93,0.00,,,-99.99,Meteorologica,2013-05-31 08:40:00,
2013-05-31 03:45:00,59.4,57.3,29.63,South,191,0.0,0.0,93,0.00,,,-99.99,Meteorologica,2013-05-31 08:45:00,
2013-05-31 03:50:00,59.5,57.4,29.63,South,191,0.0,0.0,93,0.00,,,-99.99,Meteorologica,2013-05-31 08:50:00,
2013-05-31 03:55:00,59.5,57.4,29.63,South,191,0.0,0.0,92,0.00,,,-99.99,Meteorologica,2013-05-31 08:55:00,
2013-05-31 04:00:00,59.5,57.4,29.62,South,191,0.0,0.0,93,0.00,,,-99.99,Meteorologica,2013-05-31 09:00:00,
2013-05-31 04:05:00,59.6,57.5,29.61,South,191,0.0,0.0,93,0.00,,,-99.99,Meteorologica,2013-05-31 09:05:00,
2013-05-31 04:10:00,59.7,57.6,29.62,South,191,0.0,0.0,92,0.00,,,-99.99,Meteorologica,2013-05-31 09:10:00,
2013-05-31 04:15:00,59.9,57.8,29.61,South,191,0.0,0.0,92,0.00,,,-99.99,Meteorologica,2013-05-31 09:15:00,
2013-05-31 04:20:00,59.9,57.8,29.61,South,191,0.0,0.0,92,0.00,,,-99.99,Meteorologica,2013-05-31 09:20:00,
2013-05-31 04:25:00,59.9,57.8,29.61,South,191,0.0,0.0,92,0.00,,,-99.99,Meteorologica,2013-05-31 09:25:00,
2013-05-31 04:30:00,60.0,57.9,29.62,South,191,0.0,0.0,92,0.00,,,-99.99,Meteorologica,2013-05-31 09:30:00,
2013-05-31 04:35:00,59.9,57.9,29.60,South,191,0.0,0.0,93,0.00,,,-99.99,Meteorologica,2013-05-31 09:35:00,
2013-05-31 04:41:00,60.0,57.9,29.61,South,191,0.0,0.0,93,0.00,,,-99.99,Meteorologica,2013-05-31 09:41:00,
2013-05-31 04:46:00,59.9,57.9,29.60,South,191,0.0,0.0,93,0.00,,,-99.99,Meteorologica,2013-05-31 09:46:00,
2013-05-31 04:51:00,60.0,58.0,29.61,South,191,0.0,0.0,93,0.00,,,-99.99,Meteorologica,2013-05-31 09:51:00,
2013-05-31 04:56:00,60.0,58.0,29.61,South,191,0.0,0.0,93,0.00,,,-99.99,Meteorologica,2013-05-31 09:56:00,
2013-05-31 05:01:00,60.3,58.3,29.62,South,191,0.0,0.0,93,0.00,,,-99.99,Meteorologica,2013-05-31 10:01:00,
2013-05-31 05:06:00,60.5,58.5,29.62,South,191,0.0,0.0,93,0.00,,,-99.99,Meteorologica,2013-05-31 10:06:00,
2013-05-31 05:11:00,60.9,58.9,29.61,South,191,0.0,0.0,93,0.00,,,-99.99,Meteorologica,2013-05-31 10:11:00,
2013-05-31 05:16:00,60.9,58.9,29.61,South,191,0.0,0.0,93,0.00,,,-99.99,Meteorologica,2013-05-31 10:16:00,
2013-05-31 05:21:00,60.9,58.9,29.62,South,191,0.0,0.0,93,0.00,,,-99.99,Meteorologica,2013-05-31 10:21:00,
2013-05-31 05:26:00,60.8,58.8,29.61,South,191,0.0,0.0,93,0.00,,,-99.99,Meteorologica,2013-05-31 10:26:00,
2013-05-31 05:31:00,60.7,58.7,29.62,South,191,0.0,0.0,93,0.00,,,-99.99,Meteorologica,2013-05-31 10:31:00,
2013-05-31 05:36:00,60.8,58.8,29.62,South,191,0.0,0.0,93,0.00,,,-99.99,Meteorologica,2013-05-31 10:36:00,
2013-05-31 05:41:00,60.9,58.9,29.63,South,191,0.0,0.0,93,0.00,,,-99.99,Meteorologica,2013-05-31 10:41:00,
2013-05-31 05:46:00,60.8,58.8,29.62,South,191,0.0,0.0,93,0.00,,,-99.99,Meteorologica,2013-05-31 10:46:00,
2013-05-31 05:51:00,60.9,59.0,29.61,South,191,0.0,0.0,93,0.00,,,-99.99,Meteorologica,2013-05-31 10:51:00,
2013-05-31 05:56:00,60.9,59.0,29.62,South,191,0.0,0.0,93,0.00,,,-99.99,Meteorologica,2013-05-31 10:56:00,
2013-05-31 06:01:00,60.8,59.0,29.63,South,191,0.0,0.0,93,0.00,,,-99.99,Meteorologica,2013-05-31 11:01:00,
2013-05-31 06:06:00,61.0,59.2,29.64,NNE,19,0.0,0.0,93,0.00,,,-99.99,Meteorologica,2013-05-31 11:06:00,
2013-05-31 06:11:00,61.2,59.4,29.65,North,359,0.3,2.4,93,0.00,,,-99.99,Meteorologica,2013-05-31 11:11:00,
2013-05-31 06:16:00,61.4,59.6,29.67,NNE,23,0.0,0.0,93,0.00,,,-99.99,Meteorologica,2013-05-31 11:16:00,
2013-05-31 06:21:00,61.9,60.1,29.65,NNW,344,0.0,0.0,93,0.00,,,-99.99,Meteorologica,2013-05-31 11:21:00,
2013-05-31 06:26:00,62.3,60.4,29.66,West,269,0.6,0.0,93,0.00,,,-99.99,Meteorologica,2013-05-31 11:26:00,
2013-05-31 06:31:00,62.3,60.2,29.65,West,269,0.0,0.0,92,0.00,,,-99.99,Meteorologica,2013-05-31 11:31:00,
2013-05-31 06:36:00,62.3,60.0,29.67,West,269,0.0,0.0,92,0.00,,,-99.99,Meteorologica,2013-05-31 11:36:00,
2013-05-31 06:41:00,62.2,59.7,29.67,West,269,0.0,0.0,91,0.00,,,-99.99,Meteorologica,2013-05-31 11:41:00,
2013-05-31 06:46:00,62.3,59.7,29.67,West,269,0.0,0.0,91,0.00,,,-99.99,Meteorologica,2013-05-31 11:46:00,
2013-05-31 06:51:00,62.4,59.7,29.67,West,269,0.0,0.0,90,0.00,,,-99.99,Meteorologica,2013-05-31 11:51:00,
2013-05-31 06:56:00,62.4,59.7,29.66,West,269,0.0,0.0,90,0.00,,,-99.99,Meteorologica,2013-05-31 11:56:00,
2013-05-31 07:01:00,62.4,59.6,29.66,West,269,0.0,0.0,90,0.00,,,-99.99,Meteorologica,2013-05-31 12:01:00,
2013-05-31 07:06:00,62.6,59.8,29.67,West,269,0.0,0.0,90,0.00,,,-99.99,Meteorologica,2013-05-31 12:06:00,
2013-05-31 07:11:00,62.8,59.9,29.67,West,269,0.0,0.0,90,0.00,,,-99.99,Meteorologica,2013-05-31 12:11:00,
2013-05-31 07:16:00,62.9,59.6,29.67,West,269,0.0,0.0,89,0.00,,,-99.99,Meteorologica,2013-05-31 12:16:00,
2013-05-31 07:21:00,63.2,60.0,29.68,West,269,0.0,0.0,89,0.00,,,-99.99,Meteorologica,2013-05-31 12:21:00,
2013-05-31 07:26:00,63.4,60.1,29.67,West,269,0.0,0.0,89,0.00,,,-99.99,Meteorologica,2013-05-31 12:26:00,
2013-05-31 07:31:00,63.5,59.7,29.68,West,269,0.0,0.0,87,0.00,,,-99.99,Meteorologica,2013-05-31 12:31:00,
2013-05-31 07:36:00,63.7,59.9,29.68,West,269,0.0,0.0,87,0.00,,,-99.99,Meteorologica,2013-05-31 12:36:00,
2013-05-31 07:41:00,63.8,60.2,29.69,West,269,0.0,0.0,88,0.00,,,-99.99,Meteorologica,2013-05-31 12:41:00,
2013-05-31 07:46:00,64.0,60.5,29.68,West,269,0.0,0.0,88,0.00,,,-99.99,Meteorologica,2013-05-31 12:46:00,
2013-05-31 07:51:00,64.1,60.7,29.69,West,269,0.0,0.0,88,0.00,,,-99.99,Meteorologica,2013-05-31 12:51:00,
2013-05-31 07:56:00,64.2,60.8,29.68,West,269,0.0,0.0,88,0.00,,,-99.99,Meteorologica,2013-05-31 12:56:00,
2013-05-31 08:01:00,64.4,60.9,29.68,West,269,0.0,0.0,88,0.00,,,-99.99,Meteorologica,2013-05-31 13:01:00,
2013-05-31 08:06:00,64.6,61.0,29.69,West,269,0.0,0.0,88,0.00,,,-99.99,Meteorologica,2013-05-31 13:06:00,
2013-05-31 08:11:00,64.8,60.7,29.68,West,269,0.0,0.0,86,0.00,,,-99.99,Meteorologica,2013-05-31 13:11:00,
2013-05-31 08:16:00,64.9,60.6,29.69,West,269,0.0,0.0,86,0.00,,,-99.99,Meteorologica,2013-05-31 13:16:00,
2013-05-31 08:21:00,65.2,60.8,29.69,West,269,0.0,0.0,85,0.00,,,-99.99,Meteorologica,2013-05-31 13:21:00,
2013-05-31 08:26:00,65.5,60.8,29.69,West,269,0.0,0.0,84,0.00,,,-99.99,Meteorologica,2013-05-31 13:26:00,
2013-05-31 08:31:00,65.7,60.6,29.70,West,269,0.0,0.0,83,0.00,,,-99.99,Meteorologica,2013-05-31 13:31:00,
2013-05-31 08:36:00,65.9,59.9,29.70,West,269,0.0,0.0,80,0.00,,,-99.99,Meteorologica,2013-05-31 13:36:00,
2013-05-31 08:41:00,66.5,59.9,29.69,West,269,0.0,0.0,79,0.00,,,-99.99,Meteorologica,2013-05-31 13:41:00,
2013-05-31 08:46:00,67.0,59.2,29.69,West,269,0.0,0.0,75,0.00,,,-99.99,Meteorologica,2013-05-31 13:46:00,
2013-05-31 08:51:00,67.3,58.7,29.69,West,269,0.0,0.0,73,0.00,,,-99.99,Meteorologica,2013-05-31 13:51:00,
2013-05-31 08:56:00,67.7,58.4,29.70,West,269,0.0,0.0,70,0.00,,,-99.99,Meteorologica,2013-05-31 13:56:00,
2013-05-31 09:01:00,68.1,59.2,29.70,West,269,0.0,0.0,72,0.00,,,-99.99,Meteorologica,2013-05-31 14:01:00,
2013-05-31 09:06:00,68.5,57.5,29.70,West,269,0.0,0.0,67,0.00,,,-99.99,Meteorologica,2013-05-31 14:06:00,
2013-05-31 09:11:00,69.4,59.0,29.70,West,269,0.0,0.0,69,0.00,,,-99.99,Meteorologica,2013-05-31 14:11:00,
2013-05-31 09:16:00,70.0,57.5,29.71,West,269,0.0,0.0,64,0.00,,,-99.99,Meteorologica,2013-05-31 14:16:00,
2013-05-31 09:21:00,70.3,56.8,29.71,West,269,0.0,0.0,61,0.00,,,-99.99,Meteorologica,2013-05-31 14:21:00,
2013-05-31 09:26:00,70.7,57.6,29.71,WNW,292,0.4,0.0,63,0.00,,,-99.99,Meteorologica,2013-05-31 14:26:00,
2013-05-31 09:31:00,71.2,58.0,29.71,WNW,292,0.0,0.0,62,0.00,,,-99.99,Meteorologica,2013-05-31 14:31:00,
2013-05-31 09:36:00,71.0,56.1,29.71,WSW,249,0.0,0.0,58,0.00,,,-99.99,Meteorologica,2013-05-31 14:36:00,
2013-05-31 09:41:00,70.9,56.5,29.71,West,271,0.0,0.0,59,0.00,,,-99.99,Meteorologica,2013-05-31 14:41:00,
2013-05-31 09:46:00,71.3,57.4,29.71,NE,53,0.0,0.0,61,0.00,,,-99.99,Meteorologica,2013-05-31 14:46:00,
2013-05-31 09:51:00,71.6,56.6,29.71,ENE,66,0.0,0.0,58,0.00,,,-99.99,Meteorologica,2013-05-31 14:51:00,
2013-05-31 09:56:00,72.0,59.4,29.71,ENE,66,0.0,0.0,64,0.00,,,-99.99,Meteorologica,2013-05-31 14:56:00,
2013-05-31 10:01:00,72.6,58.7,29.71,ENE,66,0.0,0.0,61,0.00,,,-99.99,Meteorologica,2013-05-31 15:01:00,
2013-05-31 10:06:00,72.9,58.3,29.71,NE,38,1.9,3.4,59,0.00,,,-99.99,Meteorologica,2013-05-31 15:06:00,
2013-05-31 10:11:00,72.9,57.7,29.71,WSW,247,0.0,0.0,58,0.00,,,-99.99,Meteorologica,2013-05-31 15:11:00,
2013-05-31 10:16:00,72.6,56.6,29.71,WSW,249,0.2,2.2,56,0.00,,,-99.99,Meteorologica,2013-05-31 15:16:00,
2013-05-31 10:21:00,72.3,55.9,29.72,West,273,2.5,2.8,56,0.00,,,-99.99,Meteorologica,2013-05-31 15:21:00,
2013-05-31 10:26:00,72.0,55.9,29.71,WNW,282,0.0,0.0,56,0.00,,,-99.99,Meteorologica,2013-05-31 15:26:00,
2013-05-31 10:31:00,72.3,57.1,29.71,WNW,282,0.0,0.0,58,0.00,,,-99.99,Meteorologica,2013-05-31 15:31:00,
2013-05-31 10:36:00,72.6,58.5,29.72,ENE,69,1.0,0.0,60,0.00,,,-99.99,Meteorologica,2013-05-31 15:36:00,
2013-05-31 10:41:00,73.0,57.5,29.72,ENE,69,0.0,0.0,58,0.00,,,-99.99,Meteorologica,2013-05-31 15:41:00,
2013-05-31 10:46:00,73.2,57.7,29.72,ENE,69,0.0,0.0,58,0.00,,,-99.99,Meteorologica,2013-05-31 15:46:00,
2013-05-31 10:51:00,73.4,58.0,29.72,ENE,69,0.0,0.0,58,0.00,,,-99.99,Meteorologica,2013-05-31 15:51:00,
2013-05-31 10:56:00,73.5,58.0,29.72,ENE,69,0.0,0.0,57,0.00,,,-99.99,Meteorologica,2013-05-31 15:56:00,
2013-05-31 11:01:00,73.7,58.3,29.72,NE,47,0.0,0.0,59,0.00,,,-99.99,Meteorologica,2013-05-31 16:01:00,
2013-05-31 11:06:00,73.8,56.2,29.72,NE,47,0.0,0.0,53,0.00,,,-99.99,Meteorologica,2013-05-31 16:06:00,
2013-05-31 11:11:00,73.7,58.2,29.72,NE,47,0.0,0.0,58,0.00,,,-99.99,Meteorologica,2013-05-31 16:11:00,
2013-05-31 11:16:00,74.0,56.2,29.72,WSW,249,0.0,0.0,53,0.00,,,-99.99,Meteorologica,2013-05-31 16:16:00,
2013-05-31 11:21:00,74.1,55.9,29.72,West,279,0.0,0.0,52,0.00,,,-99.99,Meteorologica,2013-05-31 16:21:00,
2013-05-31 11:26:00,74.2,55.3,29.72,West,271,0.4,0.0,51,0.00,,,-99.99,Meteorologica,2013-05-31 16:26:00,
2013-05-31 11:31:00,75.0,56.8,29.72,West,271,0.0,0.0,53,0.00,,,-99.99,Meteorologica,2013-05-31 16:31:00,
2013-05-31 11:36:00,75.3,56.7,29.72,West,271,0.0,0.0,52,0.00,,,-99.99,Meteorologica,2013-05-31 16:36:00,
2013-05-31 11:41:00,75.4,56.5,29.72,SSE,155,4.1,4.1,51,0.00,,,-99.99,Meteorologica,2013-05-31 16:41:00,
2013-05-31 11:46:00,75.8,56.8,29.72,SW,227,0.9,3.3,51,0.00,,,-99.99,Meteorologica,2013-05-31 16:46:00,
2013-05-31 11:51:00,75.9,56.4,29.72,South,175,0.2,0.0,50,0.00,,,-99.99,Meteorologica,2013-05-31 16:51:00,
2013-05-31 11:56:00,76.0,57.9,29.72,WNW,293,4.1,6.6,53,0.00,,,-99.99,Meteorologica,2013-05-31 16:56:00,
2013-05-31 12:01:00,75.8,57.6,29.72,South,190,4.0,4.9,52,0.00,,,-99.99,Meteorologica,2013-05-31 17:01:00,
2013-05-31 12:06:00,75.9,58.0,29.72,South,190,0.0,0.0,53,0.00,,,-99.99,Meteorologica,2013-05-31 17:06:00,
2013-05-31 12:11:00,76.1,54.9,29.72,WSW,258,1.9,0.0,47,0.00,,,-99.99,Meteorologica,2013-05-31 17:11:00,
2013-05-31 12:16:00,76.4,56.3,29.72,ENE,64,1.1,2.4,49,0.00,,,-99.99,Meteorologica,2013-05-31 17:16:00,
2013-05-31 12:21:00,76.6,56.7,29.72,South,186,0.6,0.0,50,0.00,,,-99.99,Meteorologica,2013-05-31 17:21:00,
2013-05-31 12:26:00,77.2,59.5,29.71,WNW,293,1.0,4.8,54,0.00,,,-99.99,Meteorologica,2013-05-31 17:26:00,
2013-05-31 12:31:00,77.0,58.6,29.71,SSW,207,0.4,3.3,52,0.00,,,-99.99,Meteorologica,2013-05-31 17:31:00,
2013-05-31 12:36:00,77.4,59.2,29.71,SW,217,2.8,0.0,53,0.00,,,-99.99,Meteorologica,2013-05-31 17:36:00,
2013-05-31 12:41:00,77.3,58.9,29.71,SW,228,0.0,0.0,52,0.00,,,-99.99,Meteorologica,2013-05-31 17:41:00,
2013-05-31 12:46:00,77.4,58.3,29.71,WNW,303,0.0,0.0,51,0.00,,,-99.99,Meteorologica,2013-05-31 17:46:00,
2013-05-31 12:51:00,77.3,58.2,29.71,WNW,282,0.0,0.0,51,0.00,,,-99.99,Meteorologica,2013-05-31 17:51:00,
2013-05-31 12:56:00,77.4,58.0,29.70,WNW,282,0.0,0.0,51,0.00,,,-99.99,Meteorologica,2013-05-31 17:56:00,
2013-05-31 13:01:00,78.0,60.2,29.70,WNW,289,3.7,6.4,54,0.00,,,-99.99,Meteorologica,2013-05-31 18:01:00,
2013-05-31 13:06:00,78.5,56.6,29.70,WSW,249,3.0,6.0,47,0.00,,,-99.99,Meteorologica,2013-05-31 18:06:00,
2013-05-31 13:11:00,78.8,57.6,29.70,SW,230,0.7,2.7,48,0.00,,,-99.99,Meteorologica,2013-05-31 18:11:00,
2013-05-31 13:16:00,79.1,56.0,29.71,WSW,258,0.0,0.0,44,0.00,,,-99.99,Meteorologica,2013-05-31 18:16:00,
2013-05-31 13:21:00,79.1,55.1,29.70,West,271,0.2,0.0,43,0.00,,,-99.99,Meteorologica,2013-05-31 18:21:00,
2013-05-31 13:26:00,79.0,57.4,29.71,West,276,4.3,5.7,47,0.00,,,-99.99,Meteorologica,2013-05-31 18:26:00,
2013-05-31 13:31:00,79.2,57.4,29.71,SW,228,0.0,0.0,47,0.00,,,-99.99,Meteorologica,2013-05-31 18:31:00,
2013-05-31 13:36:00,79.5,56.2,29.72,West,277,6.3,10.2,44,0.00,,,-99.99,Meteorologica,2013-05-31 18:36:00,
2013-05-31 13:41:00,80.0,57.9,29.72,NW,304,2.3,3.2,46,0.00,,,-99.99,Meteorologica,2013-05-31 18:41:00,
2013-05-31 13:46:00,79.8,57.3,29.72,West,279,3.2,9.5,46,0.00,,,-99.99,Meteorologica,2013-05-31 18:46:00,
2013-05-31 13:51:00,79.4,54.7,29.71,WNW,289,0.0,0.0,42,0.00,,,-99.99,Meteorologica,2013-05-31 18:51:00,
2013-05-31 13:56:00,79.5,54.7,29.71,SSW,199,0.9,4.5,42,0.00,,,-99.99,Meteorologica,2013-05-31 18:56:00,
2013-05-31 14:01:00,80.0,57.5,29.70,West,263,0.0,0.0,46,0.00,,,-99.99,Meteorologica,2013-05-31 19:01:00,
2013-05-31 14:06:00,80.0,56.0,29.70,South,173,1.1,6.0,43,0.00,,,-99.99,Meteorologica,2013-05-31 19:06:00,
2013-05-31 14:11:00,79.4,56.7,29.69,WNW,287,0.5,0.0,45,0.00,,,-99.99,Meteorologica,2013-05-31 19:11:00,
2013-05-31 14:16:00,79.2,57.2,29.70,South,190,0.0,0.0,46,0.00,,,-99.99,Meteorologica,2013-05-31 19:16:00,
2013-05-31 14:21:00,78.7,57.2,29.71,WNW,299,2.8,5.1,47,0.00,,,-99.99,Meteorologica,2013-05-31 19:21:00,
2013-05-31 14:26:00,78.2,55.1,29.71,WNW,302,2.8,7.3,45,0.00,,,-99.99,Meteorologica,2013-05-31 19:26:00,
2013-05-31 14:31:00,77.9,56.6,29.70,WNW,288,0.9,8.1,47,0.00,,,-99.99,Meteorologica,2013-05-31 19:31:00,
2013-05-31 14:36:00,78.1,57.3,29.71,NW,304,2.6,4.9,47,0.00,,,-99.99,Meteorologica,2013-05-31 19:36:00,
2013-05-31 14:41:00,78.9,57.0,29.70,WSW,244,2.0,0.0,46,0.00,,,-99.99,Meteorologica,2013-05-31 19:41:00,
2013-05-31 14:46:00,79.1,56.1,29.70,WNW,296,0.0,0.0,45,0.00,,,-99.99,Meteorologica,2013-05-31 19:46:00,
2013-05-31 14:51:00,79.1,55.5,29.70,WSW,250,2.8,3.5,44,0.00,,,-99.99,Meteorologica,2013-05-31 19:51:00,
2013-05-31 14:56:00,79.0,56.0,29.69,SE,135,0.0,0.0,45,0.00,,,-99.99,Meteorologica,2013-05-31 19:56:00,
2013-05-31 15:01:00,78.9,54.9,29.69,NNW,341,0.0,0.0,43,0.00,,,-99.99,Meteorologica,2013-05-31 20:01:00,
2013-05-31 15:06:00,78.8,55.4,29.69,SSW,206,1.8,3.3,44,0.00,,,-99.99,Meteorologica,2013-05-31 20:06:00,
2013-05-31 15:11:00,78.7,57.2,29.69,SW,230,0.0,0.0,47,0.00,,,-99.99,Meteorologica,2013-05-31 20:11:00,
2013-05-31 15:16:00,78.7,57.3,29.70,SW,230,0.0,0.0,48,0.00,,,-99.99,Meteorologica,2013-05-31 20:16:00,
2013-05-31 15:21:00,78.4,56.3,29.69,West,259,2.2,3.5,46,0.00,,,-99.99,Meteorologica,2013-05-31 20:21:00,
2013-05-31 15:26:00,78.1,56.9,29.70,WSW,239,1.3,0.0,48,0.00,,,-99.99,Meteorologica,2013-05-31 20:26:00,
2013-05-31 15:31:00,78.5,57.1,29.70,SW,219,0.9,0.0,47,0.00,,,-99.99,Meteorologica,2013-05-31 20:31:00,
2013-05-31 15:36:00,79.3,58.6,29.70,WNW,300,1.7,0.0,49,0.00,,,-99.99,Meteorologica,2013-05-31 20:36:00,
2013-05-31 15:41:00,80.0,55.4,29.69,SW,231,1.5,0.0,42,0.00,,,-99.99,Meteorologica,2013-05-31 20:41:00,
2013-05-31 15:46:00,80.2,55.3,29.70,WNW,290,4.4,4.8,42,0.00,,,-99.99,Meteorologica,2013-05-31 20:46:00,
2013-05-31 15:51:00,80.4,53.1,29.70,SSE,149,2.1,10.0,38,0.00,,,-99.99,Meteorologica,2013-05-31 20:51:00,
2013-05-31 15:56:00,80.2,53.8,29.69,SSW,199,2.8,3.2,40,0.00,,,-99.99,Meteorologica,2013-05-31 20:56:00,
2013-05-31 16:01:00,79.5,52.9,29.69,WSW,247,4.0,4.9,40,0.00,,,-99.99,Meteorologica,2013-05-31 21:01:00,
2013-05-31 16:06:00,79.0,55.0,29.68,SSW,200,0.0,0.0,43,0.00,,,-99.99,Meteorologica,2013-05-31 21:06:00,
2013-05-31 16:11:00,78.8,56.5,29.69,SSW,203,4.3,6.5,46,0.00,,,-99.99,Meteorologica,2013-05-31 21:11:00,
2013-05-31 16:16:00,78.7,56.0,29.69,SW,217,1.7,0.0,45,0.00,,,-99.99,Meteorologica,2013-05-31 21:16:00,
2013-05-31 16:21:00,78.3,57.6,29.68,South,175,0.5,3.3,48,0.00,,,-99.99,Meteorologica,2013-05-31 21:21:00,
2013-05-31 16:26:00,78.4,56.0,29.69,South,169,3.9,5.1,46,0.00,,,-99.99,Meteorologica,2013-05-31 21:26:00,
2013-05-31 16:31:00,78.4,56.6,29.68,SSW,203,2.2,0.0,47,0.00,,,-99.99,Meteorologica,2013-05-31 21:31:00,
2013-05-31 16:36:00,78.4,56.3,29.68,SW,231,2.2,0.0,46,0.00,,,-99.99,Meteorologica,2013-05-31 21:36:00,
2013-05-31 16:41:00,78.8,55.9,29.68,SSE,158,2.7,0.0,45,0.00,,,-99.99,Meteorologica,2013-05-31 21:41:00,
2013-05-31 16:46:00,78.7,56.3,29.68,SSW,195,4.9,10.1,46,0.00,,,-99.99,Meteorologica,2013-05-31 21:46:00,
2013-05-31 16:51:00,79.1,57.8,29.68,WNW,284,5.2,5.4,48,0.00,,,-99.99,Meteorologica,2013-05-31 21:51:00,
2013-05-31 16:56:00,79.7,56.9,29.68,SW,220,2.7,5.0,45,0.00,,,-99.99,Meteorologica,2013-05-31 21:56:00,
2013-05-31 17:01:00,80.1,55.9,29.68,SSE,162,1.3,0.0,43,0.00,,,-99.99,Meteorologica,2013-05-31 22:01:00,
2013-05-31 17:06:00,80.3,57.0,29.67,SSW,208,2.6,4.4,44,0.00,,,-99.99,Meteorologica,2013-05-31 22:06:00,
2013-05-31 17:11:00,80.5,54.8,29.67,SW,222,1.9,0.0,41,0.00,,,-99.99,Meteorologica,2013-05-31 22:11:00,
2013-05-31 17:16:00,80.5,56.1,29.67,West,273,3.9,0.0,43,0.00,,,-99.99,Meteorologica,2013-05-31 22:16:00,
2013-05-31 17:21:00,80.5,54.9,29.67,WSW,255,4.4,4.4,41,0.00,,,-99.99,Meteorologica,2013-05-31 22:21:00,
2013-05-31 17:26:00,80.5,54.3,29.67,West,273,1.9,6.4,40,0.00,,,-99.99,Meteorologica,2013-05-31 22:26:00,
2013-05-31 17:31:00,80.4,55.7,29.66,WSW,248,1.7,0.0,42,0.00,,,-99.99,Meteorologica,2013-05-31 22:31:00,
2013-05-31 17:36:00,79.8,55.0,29.66,SSE,165,1.2,0.0,42,0.00,,,-99.99,Meteorologica,2013-05-31 22:36:00,
2013-05-31 17:41:00,79.3,55.9,29.66,West,273,0.3,0.0,44,0.00,,,-99.99,Meteorologica,2013-05-31 22:41:00,
2013-05-31 17:46:00,79.0,56.6,29.67,WSW,254,1.0,0.0,45,0.00,,,-99.99,Meteorologica,2013-05-31 22:46:00,
2013-05-31 17:51:00,79.0,55.7,29.67,SW,218,2.2,4.5,44,0.00,,,-99.99,Meteorologica,2013-05-31 22:51:00,
2013-05-31 17:56:00,79.0,55.2,29.67,WSW,242,0.7,0.0,44,0.00,,,-99.99,Meteorologica,2013-05-31 22:56:00,
2013-05-31 18:01:00,78.8,56.6,29.67,WSW,238,0.0,0.0,46,0.00,,,-99.99,Meteorologica,2013-05-31 23:01:00,
2013-05-31 18:06:00,78.7,57.3,29.68,South,172,0.0,0.0,47,0.00,,,-99.99,Meteorologica,2013-05-31 23:06:00,
2013-05-31 18:11:00,78.9,57.8,29.67,WSW,237,3.3,3.3,48,0.00,,,-99.99,Meteorologica,2013-05-31 23:11:00,
2013-05-31 18:16:00,79.2,57.7,29.67,NW,310,2.1,7.0,47,0.00,,,-99.99,Meteorologica,2013-05-31 23:16:00,
2013-05-31 18:21:00,79.4,58.0,29.67,West,263,0.0,0.0,47,0.00,,,-99.99,Meteorologica,2013-05-31 23:21:00,
2013-05-31 18:26:00,79.2,58.0,29.67,WNW,285,0.0,0.0,48,0.00,,,-99.99,Meteorologica,2013-05-31 23:26:00,
2013-05-31 18:31:00,79.1,59.7,29.67,WNW,296,0.0,0.0,51,0.00,,,-99.99,Meteorologica,2013-05-31 23:31:00,
2013-05-31 18:36:00,79.3,59.2,29.67,WSW,250,1.9,3.3,50,0.00,,,-99.99,Meteorologica,2013-05-31 23:36:00,
2013-05-31 18:41:00,79.7,59.8,29.67,NW,306,1.1,0.0,50,0.00,,,-99.99,Meteorologica,2013-05-31 23:41:00,
2013-05-31 18:46:00,79.8,60.0,29.67,South,175,0.0,0.0,50,0.00,,,-99.99,Meteorologica,2013-05-31 23:46:00,
2013-05-31 18:51:00,79.7,59.9,29.67,WSW,242,0.5,0.0,50,0.00,,,-99.99,Meteorologica,2013-05-31 23:51:00,
2013-05-31 18:56:00,79.3,61.1,29.67,WSW,242,0.0,0.0,52,0.00,,,-99.99,Meteorologica,2013-05-31 23:56:00,
2013-05-31 19:01:00,79.2,59.8,29.66,South,184,0.0,0.0,51,0.00,,,-99.99,Meteorologica,2013-06-01 00:01:00,
2013-05-31 19:06:00,79.3,60.0,29.67,West,262,0.0,0.0,51,0.00,,,-99.99,Meteorologica,2013-06-01 00:06:00,
2013-05-31 19:11:00,79.3,59.7,29.67,WNW,293,0.6,0.0,50,0.00,,,-99.99,Meteorologica,2013-06-01 00:11:00,
2013-05-31 19:16:00,79.4,58.2,29.66,West,277,1.8,4.6,48,0.00,,,-99.99,Meteorologica,2013-06-01 00:16:00,
2013-05-31 19:21:00,79.2,58.2,29.67,West,280,2.2,0.0,48,0.00,,,-99.99,Meteorologica,2013-06-01 00:21:00,
2013-05-31 19:26:00,79.2,57.7,29.66,WSW,237,0.0,0.0,47,0.00,,,-99.99,Meteorologica,2013-06-01 00:26:00,
2013-05-31 19:31:00,79.1,56.7,29.66,WSW,241,0.7,3.2,46,0.00,,,-99.99,Meteorologica,2013-06-01 00:31:00,
2013-05-31 19:36:00,79.0,57.3,29.66,West,279,0.0,0.0,47,0.00,,,-99.99,Meteorologica,2013-06-01 00:36:00,
2013-05-31 19:41:00,78.9,56.6,29.66,West,279,0.0,0.0,46,0.00,,,-99.99,Meteorologica,2013-06-01 00:41:00,
2013-05-31 19:46:00,78.5,57.4,29.66,West,279,1.4,0.0,48,0.00,,,-99.99,Meteorologica,2013-06-01 00:46:00,
2013-05-31 19:51:00,78.0,56.9,29.65,West,278,0.0,0.0,48,0.00,,,-99.99,Meteorologica,2013-06-01 00:51:00,
2013-05-31 19:56:00,77.1,56.6,29.65,WSW,242,0.0,0.0,49,0.00,,,-99.99,Meteorologica,2013-06-01 00:56:00,
2013-05-31 20:01:00,76.4,56.2,29.65,WSW,242,0.0,0.0,49,0.00,,,-99.99,Meteorologica,2013-06-01 01:01:00,
2013-05-31 20:06:00,76.3,56.5,29.65,WSW,242,0.0,0.0,50,0.00,,,-99.99,Meteorologica,2013-06-01 01:06:00,
2013-05-31 20:11:00,75.6,56.5,29.65,WSW,242,0.0,0.0,51,0.00,,,-99.99,Meteorologica,2013-06-01 01:11:00,
2013-05-31 20:16:00,75.2,56.1,29.65,WSW,242,0.0,0.0,51,0.00,,,-99.99,Meteorologica,2013-06-01 01:16:00,
2013-05-31 20:21:00,75.0,56.1,29.64,WSW,242,0.0,0.0,51,0.00,,,-99.99,Meteorologica,2013-06-01 01:21:00,
2013-05-31 20:26:00,74.4,56.6,29.64,WSW,242,0.0,0.0,53,0.00,,,-99.99,Meteorologica,2013-06-01 01:26:00,
2013-05-31 20:31:00,74.2,55.7,29.65,WSW,242,0.0,0.0,52,0.00,,,-99.99,Meteorologica,2013-06-01 01:31:00,
2013-05-31 20:36:00,73.7,55.9,29.65,WSW,242,0.0,0.0,53,0.00,,,-99.99,Meteorologica,2013-06-01 01:36:00,
2013-05-31 20:41:00,73.5,56.7,29.64,WSW,242,0.0,0.0,55,0.00,,,-99.99,Meteorologica,2013-06-01 01:41:00,
2013-05-31 20:46:00,73.0,56.6,29.64,WSW,242,0.0,0.0,55,0.00,,,-99.99,Meteorologica,2013-06-01 01:46:00,
2013-05-31 20:51:00,72.6,56.4,29.65,WSW,242,0.0,0.0,56,0.00,,,-99.99,Meteorologica,2013-06-01 01:51:00,
2013-05-31 20:56:00,71.9,56.1,29.66,WSW,242,0.0,0.0,57,0.00,,,-99.99,Meteorologica,2013-06-01 01:56:00,
2013-05-31 21:01:00,71.4,56.5,29.66,WSW,242,0.0,0.0,59,0.00,,,-99.99,Meteorologica,2013-06-01 02:01:00,
2013-05-31 21:06:00,70.9,56.6,29.66,WSW,242,0.0,0.0,60,0.00,,,-99.99,Meteorologica,2013-06-01 02:06:00,
2013-05-31 21:11:00,70.2,56.3,29.66,WSW,242,0.0,0.0,61,0.00,,,-99.99,Meteorologica,2013-06-01 02:11:00,
2013-05-31 21:16:00,69.5,56.2,29.67,WSW,242,0.0,0.0,62,0.00,,,-99.99,Meteorologica,2013-06-01 02:16:00,
2013-05-31 21:21:00,69.1,55.8,29.67,WSW,242,0.0,0.0,62,0.00,,,-99.99,Meteorologica,2013-06-01 02:21:00,
2013-05-31 21:26:00,68.6,55.9,29.68,WSW,242,0.0,0.0,63,0.00,,,-99.99,Meteorologica,2013-06-01 02:26:00,
2013-05-31 21:31:00,68.4,56.7,29.69,WSW,242,0.0,0.0,65,0.00,,,-99.99,Meteorologica,2013-06-01 02:31:00,
2013-05-31 21:36:00,68.3,56.9,29.70,WSW,242,0.0,0.0,66,0.00,,,-99.99,Meteorologica,2013-06-01 02:36:00,
2013-05-31 21:41:00,68.1,57.3,29.70,WSW,242,0.0,0.0,68,0.00,,,-99.99,Meteorologica,2013-06-01 02:41:00,
2013-05-31 21:46:00,67.8,57.6,29.70,WSW,242,0.0,0.0,69,0.00,,,-99.99,Meteorologica,2013-06-01 02:46:00,
2013-05-31 21:51:00,67.5,57.6,29.71,WSW,242,0.0,0.0,70,0.00,,,-99.99,Meteorologica,2013-06-01 02:51:00,
2013-05-31 21:56:00,67.3,58.1,29.72,WSW,242,0.0,0.0,72,0.00,,,-99.99,Meteorologica,2013-06-01 02:56:00,
2013-05-31 22:01:00,67.0,57.9,29.72,WSW,242,0.0,0.0,72,0.00,,,-99.99,Meteorologica,2013-06-01 03:01:00,
2013-05-31 22:06:00,66.6,57.9,29.72,WSW,242,0.0,0.0,72,0.00,,,-99.99,Meteorologica,2013-06-01 03:06:00,
2013-05-31 22:11:00,66.2,57.9,29.73,WSW,242,0.0,0.0,74,0.00,,,-99.99,Meteorologica,2013-06-01 03:11:00,
2013-05-31 22:16:00,65.9,58.1,29.72,SW,221,0.7,4.3,75,0.00,,,-99.99,Meteorologica,2013-06-01 03:16:00,
2013-05-31 22:21:00,65.9,57.9,29.72,West,263,0.0,0.0,75,0.00,,,-99.99,Meteorologica,2013-06-01 03:21:00,
2013-05-31 22:26:00,65.9,58.3,29.73,West,263,0.0,0.0,76,0.00,,,-99.99,Meteorologica,2013-06-01 03:26:00,
2013-05-31 22:31:00,65.8,58.2,29.73,West,263,0.0,0.0,76,0.00,,,-99.99,Meteorologica,2013-06-01 03:31:00,
2013-05-31 22:36:00,65.7,58.0,29.74,West,263,0.0,0.0,76,0.00,,,-99.99,Meteorologica,2013-06-01 03:36:00,
2013-05-31 22:41:00,65.6,57.8,29.74,West,263,0.0,0.0,75,0.00,,,-99.99,Meteorologica,2013-06-01 03:41:00,
2013-05-31 22:46:00,65.6,58.0,29.74,West,263,0.0,0.0,76,0.00,,,-99.99,Meteorologica,2013-06-01 03:46:00,
2013-05-31 22:51:00,65.3,57.8,29.74,West,263,0.0,0.0,76,0.00,,,-99.99,Meteorologica,2013-06-01 03:51:00,
2013-05-31 22:56:00,65.1,57.8,29.75,West,263,0.0,0.0,76,0.00,,,-99.99,Meteorologica,2013-06-01 03:56:00,
2013-05-31 23:01:00,65.0,57.9,29.75,West,263,0.0,0.0,77,0.00,,,-99.99,Meteorologica,2013-06-01 04:01:00,
2013-05-31 23:02:00,64.9,58.0,29.75,West,263,0.0,0.0,78,0.00,,,-99.99,Meteorologica,2013-06-01 04:02:00,
2013-05-31 23:03:00,64.9,58.2,29.74,West,263,0.0,0.0,78,0.00,,,-99.99,Meteorologica,2013-06-01 04:03:00,
2013-05-31 23:05:00,64.7,58.0,29.74,West,263,0.0,0.0,78,0.00,,,-99.99,Meteorologica,2013-06-01 04:05:00,
2013-05-31 23:07:00,64.5,57.8,29.75,West,263,0.0,0.0,78,0.00,,,-99.99,Meteorologica,2013-06-01 04:07:00,
2013-05-31 23:12:00,64.2,58.0,29.74,West,263,0.0,0.0,80,0.00,,,-99.99,Meteorologica,2013-06-01 04:12:00,
2013-05-31 23:15:00,64.0,58.0,29.75,West,263,0.0,0.0,80,0.00,,,-99.99,Meteorologica,2013-06-01 04:15:00,
2013-05-31 23:20:00,63.8,57.7,29.75,West,263,0.0,0.0,80,0.00,,,-99.99,Meteorologica,2013-06-01 04:20:00,
2013-05-31 23:25:00,63.9,57.6,29.76,West,263,0.0,0.0,79,0.00,,,-99.99,Meteorologica,2013-06-01 04:25:00,
2013-05-31 23:30:00,63.8,57.2,29.77,NW,321,0.0,5.8,79,0.00,,,-99.99,Meteorologica,2013-06-01 04:30:00,
2013-05-31 23:35:00,63.9,56.3,29.76,NW,321,0.0,0.0,76,0.00,,,-99.99,Meteorologica,2013-06-01 04:35:00,
2013-05-31 23:40:00,63.9,54.6,29.76,North,7,1.2,4.3,71,0.00,,,-99.99,Meteorologica,2013-06-01 04:40:00,
2013-05-31 23:45:00,64.4,53.5,29.76,North,359,0.0,5.1,67,0.00,,,-99.99,Meteorologica,2013-06-01 04:45:00,
2013-05-31 23:50:00,64.9,53.7,29.76,North,359,1.4,4.2,66,0.00,,,-99.99,Meteorologica,2013-06-01 04:50:00,
2013-05-31 23:55:00,65.1,53.8,29.76,NNE,25,2.0,3.1,66,0.00,,,-99.99,Meteorologica,2013-06-01 04:55:00,